[[{"header":{"parameterUnit":"m.s-1","parameterCategory":2,"la1":30.2991,"la2":30.254,"lo1":-89.0895,"lo2":-89.0444,"dy":0.0017,"dx":0.0017,"nx":28,"ny":28,"refTime":"2025-01-27T09:00:00:Z","depth":"0","parameterNumber":2,"parameterNumberName":"U-component_of_CURRENTS"},"data":[0,0,0,0,0,0,0,0,0,0,0,0,0,0,0,0,0,0,0,0,0,0,0,0,0,0,0,0,0,0,0,0,0,0,0,0,0,0,0,0,0,0,0,0,0,0,0,0,0,0,0,0,0,0,0,0,0,0,-0.2388,-0.2388,0,-0.2413,-0.2413,-0.2413,-0.2384,-0.2383,-0.2382,-0.2381,-0.2345,-0.2345,-0.2345,0,0,0,0,0,0,0,0,0,0,0,0,0,-0.2309,-0.231,-0.2388,-0.2388,-0.2389,-0.2413,-0.2413,-0.2413,-0.2384,-0.2383,-0.2382,-0.2381,-0.2345,-0.2345,-0.2345,0,0,0,0,0,0,0,0,0,0,0,0,0,-0.2337,-0.2311,-0.2388,-0.2379,-0.2379,-0.2413,-0.2413,-0.2413,-0.2384,-0.2383,-0.2382,-0.2381,-0.2345,-0.2345,-0.2344,-0.2367,0,0,-0.2344,-0.2343,0,0,0,0,0,0,0,0,-0.2335,-0.2339,-0.238,-0.238,-0.238,-0.2396,-0.2372,-0.2396,-0.2384,-0.2379,-0.2381,-0.238,-0.2359,-0.2358,-0.2362,-0.2366,-0.2364,-0.2344,-0.2343,-0.2343,-0.2343,0,0,0,0,0,0,0,-0.2333,-0.2338,-0.2395,-0.2381,-0.2381,-0.2373,-0.2375,-0.2376,-0.2372,-0.238,-0.2378,-0.2386,-0.2358,-0.2362,-0.2361,-0.2364,-0.2344,-0.2343,-0.2343,-0.2343,-0.2362,-0.2363,0,0,0,0,0,0,-0.2338,-0.2337,-0.2394,-0.2396,-0.2357,-0.2375,-0.2378,-0.239,-0.2374,-0.2372,-0.2387,-0.2385,-0.2363,-0.2361,-0.2359,-0.2366,-0.2343,-0.2343,-0.2343,-0.2361,-0.2362,-0.2363,0,0,0,0,0,0,-0.2336,-0.2343,-0.2393,-0.2368,-0.2374,-0.2378,-0.2392,-0.2391,-0.2391,-0.2381,-0.2376,-0.2387,-0.2362,-0.236,-0.2358,-0.2365,-0.2343,-0.2343,-0.2361,-0.2362,-0.2363,-0.2393,0,0,0,0,0,0,-0.2334,-0.2342,-0.2348,-0.2369,-0.2376,-0.241,-0.2394,-0.2393,-0.2399,-0.2396,-0.238,-0.2375,-0.2361,-0.2359,-0.2358,-0.2364,-0.2342,-0.236,-0.2361,-0.2362,-0.2391,-0.2395,-0.2398,0,0,0,0,0,-0.2331,-0.2345,-0.2348,-0.2355,-0.2385,-0.2411,-0.2414,-0.241,-0.24,-0.2403,-0.2392,-0.2375,-0.2366,-0.2359,-0.2358,-0.2365,-0.2359,-0.2361,-0.2362,-0.2389,-0.2394,-0.2398,0,0,0,0,0,0,-0.2311,-0.2345,-0.2348,-0.237,-0.2389,-0.2407,-0.2411,-0.2414,-0.241,-0.2402,-0.2387,-0.2382,-0.2384,-0.2374,-0.2367,-0.2375,-0.2359,-0.2361,-0.238,-0.2384,-0.2388,-0.238,-0.2342,0,0,0,0,0,-0.2313,-0.2329,-0.236,-0.2374,-0.2386,-0.24,-0.2408,-0.2411,-0.2415,-0.2412,-0.2403,-0.2393,-0.2393,-0.2387,-0.2384,-0.2391,-0.2372,-0.2394,-0.2397,-0.24,-0.2394,-0.2379,-0.238,-0.2368,-0.2368,-0.2368,0,0,-0.2308,-0.2329,-0.2336,-0.2371,-0.2382,-0.2404,-0.24,-0.2417,-0.2428,-0.241,-0.2412,-0.2407,-0.2398,-0.2403,-0.2403,-0.2393,-0.2395,-0.2402,-0.2405,-0.2396,-0.2381,-0.2382,-0.2383,-0.2369,-0.2369,-0.2369,0,0,-0.2308,-0.2327,-0.2341,-0.2362,-0.2389,-0.2403,-0.241,-0.2432,-0.2432,-0.2445,-0.2433,-0.2431,-0.243,-0.2425,-0.2422,-0.2445,-0.2417,-0.2445,-0.2453,-0.244,-0.244,-0.244,-0.2421,-0.2419,-0.2444,-0.2445,-0.2445,0,-0.2299,-0.2323,-0.2347,-0.2369,-0.2384,-0.2404,-0.2422,-0.2436,-0.2451,-0.2453,-0.2445,-0.2446,-0.244,-0.2444,-0.2451,-0.2452,-0.2435,-0.2438,-0.2443,-0.2443,-0.2443,-0.2422,-0.242,-0.2446,-0.2446,-0.2446,-0.2446,0,-0.2311,-0.2331,-0.2342,-0.2376,-0.2397,-0.2416,-0.2446,-0.2459,-0.2464,-0.2472,-0.2477,-0.2473,-0.2468,-0.2473,-0.2468,-0.2468,-0.2455,-0.2451,-0.243,-0.2445,-0.2424,-0.242,-0.2448,-0.2448,-0.2447,-0.2447,0,0,-0.2278,-0.2339,-0.2338,-0.2355,-0.2402,-0.2418,-0.2447,-0.2473,-0.2482,-0.2492,-0.2495,-0.2502,-0.2495,-0.2492,-0.2488,-0.2477,-0.2467,-0.2463,-0.2461,-0.2439,-0.2428,-0.2348,-0.2337,-0.2462,-0.2461,-0.2461,-0.2415,0,-0.2273,-0.2309,-0.2344,-0.2372,-0.2392,-0.2429,-0.2452,-0.2479,-0.2494,-0.2503,-0.2505,-0.2506,-0.2505,-0.25,-0.2493,-0.2479,-0.2459,-0.2479,-0.242,-0.2418,-0.2341,-0.233,-0.2234,-0.2178,-0.2411,-0.2411,-0.241,0,-0.2261,-0.2289,-0.2317,-0.2369,-0.2381,-0.2401,-0.2435,-0.2462,-0.2491,-0.2502,-0.2509,-0.2511,-0.2511,-0.2499,-0.2474,-0.2486,-0.2454,-0.2437,-0.2434,-0.2343,-0.2331,-0.22,-0.2163,-0.2149,-0.2405,-0.2406,-0.2406,0,-0.2206,-0.2264,-0.2282,-0.23,-0.2366,-0.2378,-0.2409,-0.2449,-0.2469,-0.2495,-0.2505,-0.2509,-0.2505,-0.248,-0.2452,-0.2461,-0.2408,-0.2418,-0.2312,-0.2306,-0.2202,-0.2187,-0.2136,-0.2377,-0.2377,-0.2377,-0.2377,0,-0.2177,-0.2187,-0.2256,-0.2263,-0.2281,-0.2342,-0.2359,-0.2395,-0.2438,-0.2451,-0.2492,-0.2492,-0.2498,-0.2475,-0.2446,-0.2363,-0.2401,-0.2299,-0.2282,-0.221,-0.2197,-0.2162,-0.2194,-0.2376,-0.2376,-0.2376,-0.2377,0,-0.2101,-0.215,-0.2172,-0.2236,-0.2253,-0.2261,-0.2326,-0.2339,-0.2398,-0.2416,-0.2424,-0.2472,-0.2443,-0.243,-0.2386,-0.2341,-0.2237,-0.2235,-0.2146,-0.2117,-0.1998,-0.2036,-0.1974,-0.1912,-0.2112,-0.2109,-0.2107,0,-0.2061,-0.2065,-0.2129,-0.2135,-0.2158,-0.2189,-0.2206,-0.2292,-0.2314,-0.2391,-0.2387,-0.2391,-0.2359,-0.2279,-0.2201,-0.2116,-0.2135,-0.1983,-0.1978,-0.1961,-0.1993,-0.2033,-0.199,-0.186,-0.1857,-0.1853,-0.1851,0,-0.1974,-0.1997,-0.2015,-0.2034,-0.2053,-0.2081,-0.212,-0.2141,-0.2235,-0.2256,-0.2269,-0.2254,-0.2194,-0.2071,-0.1977,-0.1916,-0.1938,-0.1913,-0.1919,-0.18,-0.1818,-0.176,-0.1933,-0.1823,-0.1826,-0.1828,-0.1829,-0.183,-0.189,-0.1882,-0.1906,-0.191,-0.1936,-0.1947,-0.1926,-0.1988,-0.2006,-0.2014,-0.2093,-0.2041,-0.1985,-0.1832,-0.1762,-0.1634,-0.1711,-0.1595,-0.1646,-0.1692,-0.1615,-0.1717,-0.1574,-0.1575,-0.1577,-0.1578,-0.1578,0,-0.1772,-0.1774,-0.1777,-0.1785,-0.1765,-0.1819,-0.1837,-0.1779,-0.175,-0.18,-0.1785,-0.1771,-0.1651,-0.1611,-0.1496,-0.1409,-0.1377,-0.1385,-0.1432,-0.14,-0.1494,-0.1463,-0.126,-0.126,-0.126,-0.126,-0.126,-0.126,-0.1708,-0.1665,-0.167,-0.1599,-0.1603,-0.1522,-0.1498,-0.1424,-0.1402,-0.1347,-0.1376,-0.1389,-0.1448,-0.1575,-0.1446,-0.1351,-0.1328,-0.1279,-0.1313,-0.1407,-0.1431,-0.1455,-0.1432,-0.1225,-0.1225,-0.1152,-0.1152,-0.1151]},{"header":{"parameterUnit":"m.s-1","parameterCategory":2,"la1":30.2991,"la2":30.254,"lo1":-89.0895,"lo2":-89.0444,"dy":0.0017,"dx":0.0017,"nx":28,"ny":28,"refTime":"2025-01-27T09:00:00:Z","depth":"0","parameterNumber":3,"parameterNumberName":"V-component_of_CURRENTS"},"data":[0,0,0,0,0,0,0,0,0,0,0,0,0,0,0,0,0,0,0,0,0,0,0,0,0,0,0,0,0,0,0,0,0,0,0,0,0,0,0,0,0,0,0,0,0,0,0,0,0,0,0,0,0,0,0,0,0,0,-0.0173,-0.0173,0,-0.0102,-0.0101,-0.01,-0.0045,-0.0044,-0.0044,-0.0044,0.0068,0.0071,0.0073,0,0,0,0,0,0,0,0,0,0,0,0,0,-0.0215,-0.0215,-0.0173,-0.0173,-0.0172,-0.0102,-0.0101,-0.01,-0.0045,-0.0044,-0.0044,-0.0043,0.0067,0.007,0.0074,0,0,0,0,0,0,0,0,0,0,0,0,0,-0.0175,-0.0215,-0.0174,-0.0137,-0.0133,-0.0102,-0.0101,-0.0099,-0.0045,-0.0044,-0.0044,-0.0043,0.0066,0.007,0.0074,0.0086,0,0,0.0086,0.0088,0,0,0,0,0,0,0,0,-0.0177,-0.0173,-0.0143,-0.0139,-0.0135,-0.0083,-0.0074,-0.0036,-0.0045,-0.0077,-0.0044,-0.0043,0.002,0.0028,0.0041,0.0091,0.0096,0.0086,0.0089,0.009,0.0091,0,0,0,0,0,0,0,-0.018,-0.0175,-0.0144,-0.0142,-0.0137,-0.0108,-0.0102,-0.0067,-0.0031,-0.0074,-0.007,-0.0064,0.0023,0.0037,0.0044,0.0097,0.0086,0.009,0.0092,0.0093,0.0175,0.0175,0,0,0,0,0,0,-0.0194,-0.0179,-0.0146,-0.0142,-0.0156,-0.0108,-0.0101,-0.0099,-0.0032,-0.0022,-0.0065,-0.0062,0.003,0.004,0.0048,0.0067,0.009,0.0094,0.0096,0.0175,0.0175,0.0175,0,0,0,0,0,0,-0.0196,-0.0192,-0.0149,-0.0159,-0.0152,-0.0108,-0.0106,-0.0098,-0.0083,-0.0026,-0.0015,-0.0059,0.0031,0.0043,0.0077,0.0072,0.0096,0.0099,0.0176,0.0175,0.0175,0.0104,0,0,0,0,0,0,-0.0197,-0.0193,-0.0198,-0.016,-0.0152,-0.0139,-0.0107,-0.0097,-0.0081,-0.0077,-0.0017,-0.0006,0.0033,0.007,0.008,0.0078,0.0102,0.0176,0.0175,0.0175,0.0106,0.0101,0.0097,0,0,0,0,0,-0.0199,-0.0211,-0.0199,-0.0195,-0.0159,-0.0139,-0.0132,-0.0098,-0.0082,-0.0081,-0.0039,-0.0008,0.0076,0.0073,0.0085,0.0083,0.0176,0.0175,0.0175,0.0109,0.0102,0.0097,0,0,0,0,0,0,-0.023,-0.0205,-0.0191,-0.0195,-0.0172,-0.0131,-0.0127,-0.0104,-0.0071,-0.0066,-0.001,0.0003,0.0031,0.0066,0.0062,0.0107,0.0131,0.0133,0.0077,0.0071,0.0066,0.0054,0.0105,0,0,0,0,0,-0.0241,-0.0243,-0.0213,-0.0215,-0.0207,-0.0169,-0.0157,-0.0135,-0.0101,-0.0085,-0.0044,0.0001,0.0038,0.0061,0.0097,0.0121,0.0164,0.0129,0.0124,0.0119,0.0118,0.0168,0.0168,0.0174,0.0174,0.0174,0,0,-0.0252,-0.024,-0.024,-0.0222,-0.0201,-0.0199,-0.016,-0.0148,-0.0142,-0.0079,-0.0058,-0.0016,0.004,0.0066,0.0082,0.0096,0.0141,0.0119,0.0115,0.0116,0.0168,0.0167,0.0167,0.0174,0.0174,0.0174,0,0,-0.0283,-0.0268,-0.0282,-0.0271,-0.0249,-0.0224,-0.0225,-0.0189,-0.0168,-0.0144,-0.0097,-0.0059,-0.0005,0.0037,0.0064,0.0056,0.0111,0.0066,0.0036,0.0085,0.0084,0.0085,0.0142,0.0148,0.0067,0.0067,0.0067,0,-0.0298,-0.0312,-0.0283,-0.0295,-0.0291,-0.0241,-0.0256,-0.0227,-0.0184,-0.0168,-0.0148,-0.0063,-0.0017,0.0024,0.0021,0.0045,0.0083,0.0051,0.0078,0.0079,0.008,0.0139,0.0146,0.0063,0.0064,0.0064,0.0064,0,-0.034,-0.0351,-0.0359,-0.0358,-0.0348,-0.0352,-0.0314,-0.0297,-0.0264,-0.0231,-0.0187,-0.0122,-0.0069,-0.0049,-0.0015,0.0018,0.0045,0.0061,0.0088,0.0075,0.0138,0.0147,0.0058,0.006,0.0061,0.0062,0,0,-0.0377,-0.0388,-0.0391,-0.0405,-0.0384,-0.0382,-0.037,-0.0344,-0.0332,-0.0279,-0.0256,-0.0188,-0.0146,-0.0112,-0.0059,-0.0015,0.0032,0.0022,0.0026,0.0072,0.0147,0.0196,0.0211,0.005,0.0051,0.0052,0.0187,0,-0.0419,-0.0465,-0.0451,-0.0483,-0.0503,-0.0459,-0.0452,-0.0419,-0.0374,-0.0337,-0.0259,-0.0216,-0.0171,-0.0143,-0.0093,0.0001,0.0052,-0.0005,0.0159,0.0164,0.0204,0.0222,0.0269,0.0395,0.0197,0.0198,0.0199,0,-0.0466,-0.0492,-0.0539,-0.0553,-0.0555,-0.0559,-0.0536,-0.0523,-0.0453,-0.0417,-0.0355,-0.0288,-0.0207,-0.017,-0.0018,-0.0057,0.0035,0.011,0.0117,0.0194,0.023,0.0377,0.042,0.058,0.0214,0.0213,0.0212,0,-0.0517,-0.0551,-0.0593,-0.0599,-0.0603,-0.0607,-0.0598,-0.0548,-0.0535,-0.0461,-0.0434,-0.0331,-0.0266,-0.0151,0.001,-0.0004,0.0184,0.0187,0.0323,0.0328,0.0417,0.0428,0.063,0.0294,0.0294,0.0293,0.0293,0,-0.0572,-0.0604,-0.0621,-0.0646,-0.0685,-0.0662,-0.0676,-0.0648,-0.06,-0.0578,-0.0479,-0.0424,-0.0259,-0.0127,0.0002,0.0201,0.0185,0.0328,0.0368,0.0395,0.0401,0.0584,0.064,0.0298,0.0297,0.0296,0.0295,0,-0.0622,-0.0634,-0.0686,-0.0708,-0.0714,-0.0741,-0.074,-0.0742,-0.0687,-0.0652,-0.063,-0.0483,-0.0302,-0.0124,0.0091,0.0205,0.0491,0.0452,0.0477,0.0518,0.0772,0.0821,0.1059,0.1162,0.0617,0.0619,0.0621,0,-0.0652,-0.0686,-0.0739,-0.0772,-0.0784,-0.0813,-0.0828,-0.0793,-0.0785,-0.0678,-0.0661,-0.0479,-0.0331,0.0005,0.0243,0.0495,0.0609,0.0677,0.0656,0.0809,0.0893,0.0925,0.0996,0.0754,0.0757,0.0759,0.076,0,-0.0706,-0.0724,-0.0768,-0.0841,-0.0875,-0.0907,-0.0918,-0.0923,-0.0861,-0.0804,-0.0677,-0.0546,-0.0207,0.0112,0.0437,0.0587,0.0807,0.0729,0.0889,0.1022,0.1071,0.1181,0.0645,0.078,0.0778,0.0777,0.0776,0.0775,-0.0736,-0.0784,-0.084,-0.0904,-0.0948,-0.0977,-0.0955,-0.0934,-0.0892,-0.0725,-0.068,-0.04,0.0005,0.0479,0.0651,0.1036,0.0991,0.1148,0.1198,0.122,0.1314,0.082,0.0992,0.0991,0.0991,0.099,0.099,0,-0.0768,-0.0822,-0.0895,-0.0963,-0.1006,-0.101,-0.0987,-0.0904,-0.0793,-0.0637,-0.0478,-0.0023,0.0396,0.0789,0.1272,0.1489,0.1537,0.1599,0.1665,0.1717,0.1296,0.1296,0.1539,0.1539,0.1539,0.1539,0.1539,0.1538,-0.0786,-0.0861,-0.0904,-0.0986,-0.102,-0.0969,-0.0919,-0.0774,-0.0609,-0.0279,0.0026,0.0229,0.0717,0.1409,0.1871,0.192,0.2113,0.2102,0.2198,0.1908,0.187,0.1833,0.1849,0.2204,0.2205,0.2617,0.2621,0.2624]}],[{"header":{"parameterUnit":"m.s-1","parameterCategory":2,"la1":30.2991,"la2":30.254,"lo1":-89.0895,"lo2":-89.0444,"dy":0.0017,"dx":0.0017,"nx":28,"ny":28,"refTime":"2025-01-27T09:00:00:Z","depth":"2","parameterNumber":2,"parameterNumberName":"U-component_of_CURRENTS"},"data":[0,0,0,0,0,0,0,0,0,0,0,0,0,0,0,0,0,0,0,0,0,0,0,0,0,0,0,0,0,0,0,0,0,0,0,0,0,0,0,0,0,0,0,0,0,0,0,0,0,0,0,0,0,0,0,0,0,0,-0.2144,-0.2145,0,-0.2174,-0.2174,-0.2174,-0.2152,-0.2151,-0.215,-0.215,-0.2138,-0.2138,-0.2138,0,0,0,0,0,0,0,0,0,0,0,0,0,-0.2078,-0.2079,-0.2144,-0.2145,-0.2145,-0.2174,-0.2174,-0.2174,-0.2152,-0.2151,-0.215,-0.2149,-0.2137,-0.2138,-0.2138,0,0,0,0,0,0,0,0,0,0,0,0,0,-0.2105,-0.208,-0.2144,-0.2139,-0.2139,-0.2174,-0.2174,-0.2174,-0.2152,-0.2151,-0.215,-0.2149,-0.2137,-0.2138,-0.2138,-0.2166,0,0,-0.214,-0.2141,0,0,0,0,0,0,0,0,-0.2104,-0.2108,-0.214,-0.214,-0.214,-0.216,-0.2146,-0.217,-0.2152,-0.2145,-0.215,-0.2148,-0.2143,-0.2143,-0.2149,-0.2165,-0.2165,-0.214,-0.2141,-0.2141,-0.2141,0,0,0,0,0,0,0,-0.2102,-0.2106,-0.2154,-0.214,-0.214,-0.2139,-0.2141,-0.2151,-0.2148,-0.2146,-0.2145,-0.2152,-0.2143,-0.2149,-0.2149,-0.2164,-0.214,-0.2141,-0.2141,-0.2142,-0.2189,-0.219,0,0,0,0,0,0,-0.2104,-0.2105,-0.2153,-0.2155,-0.2121,-0.2141,-0.2144,-0.2153,-0.2149,-0.2148,-0.2153,-0.215,-0.2148,-0.2148,-0.2148,-0.217,-0.2141,-0.2142,-0.2142,-0.2188,-0.2189,-0.219,0,0,0,0,0,0,-0.2102,-0.2108,-0.2152,-0.2132,-0.2137,-0.2144,-0.2154,-0.2154,-0.2158,-0.2155,-0.2152,-0.2156,-0.2147,-0.2147,-0.2157,-0.2169,-0.2142,-0.2142,-0.2187,-0.2189,-0.219,-0.222,0,0,0,0,0,0,-0.21,-0.2107,-0.2112,-0.2132,-0.2139,-0.2173,-0.2156,-0.2156,-0.2165,-0.2162,-0.2158,-0.2155,-0.2146,-0.2157,-0.2158,-0.217,-0.2143,-0.2186,-0.2188,-0.2189,-0.2218,-0.2222,-0.2226,0,0,0,0,0,-0.2098,-0.211,-0.2112,-0.2118,-0.2146,-0.2174,-0.2177,-0.2176,-0.2166,-0.2173,-0.2169,-0.2155,-0.2168,-0.2158,-0.216,-0.2172,-0.2185,-0.2187,-0.2189,-0.2216,-0.2221,-0.2226,0,0,0,0,0,0,-0.2082,-0.211,-0.2112,-0.2132,-0.2152,-0.217,-0.2177,-0.2181,-0.2185,-0.2179,-0.217,-0.2168,-0.2182,-0.2177,-0.2166,-0.2191,-0.2174,-0.2176,-0.2194,-0.2199,-0.2203,-0.2196,-0.2143,0,0,0,0,0,-0.2084,-0.2097,-0.2126,-0.2139,-0.2151,-0.2166,-0.2176,-0.218,-0.2189,-0.2189,-0.2188,-0.2187,-0.2194,-0.2195,-0.22,-0.2217,-0.22,-0.2225,-0.2229,-0.2233,-0.2229,-0.222,-0.2223,-0.2197,-0.2197,-0.2197,0,0,-0.208,-0.2097,-0.2105,-0.2137,-0.2149,-0.2173,-0.2168,-0.2188,-0.2204,-0.2189,-0.2203,-0.2203,-0.2203,-0.2218,-0.2224,-0.2213,-0.2232,-0.2235,-0.2238,-0.2232,-0.2222,-0.2225,-0.2227,-0.2198,-0.2198,-0.2198,0,0,-0.2083,-0.2098,-0.2112,-0.2135,-0.2162,-0.2178,-0.2186,-0.221,-0.2215,-0.2237,-0.2228,-0.2235,-0.2248,-0.2248,-0.225,-0.2282,-0.2255,-0.2285,-0.2297,-0.229,-0.2291,-0.2292,-0.2274,-0.2273,-0.2284,-0.2284,-0.2285,0,-0.2076,-0.2099,-0.212,-0.2143,-0.216,-0.2181,-0.2202,-0.222,-0.2243,-0.2249,-0.2243,-0.2262,-0.2262,-0.2277,-0.2286,-0.229,-0.2275,-0.2278,-0.2293,-0.2294,-0.2295,-0.2276,-0.2275,-0.2286,-0.2286,-0.2286,-0.2286,0,-0.2091,-0.2112,-0.2124,-0.2159,-0.2182,-0.2205,-0.2238,-0.2257,-0.2266,-0.2279,-0.2297,-0.23,-0.2305,-0.2312,-0.2309,-0.2319,-0.2304,-0.23,-0.2278,-0.2299,-0.2278,-0.2276,-0.2289,-0.2288,-0.2287,-0.2287,0,0,-0.2062,-0.2122,-0.2124,-0.2143,-0.2192,-0.2212,-0.2248,-0.228,-0.2296,-0.2315,-0.2328,-0.2345,-0.2341,-0.2342,-0.234,-0.2336,-0.2331,-0.232,-0.2319,-0.2296,-0.2303,-0.2224,-0.2215,-0.2328,-0.2328,-0.2328,-0.2286,0,-0.2062,-0.2102,-0.2135,-0.2171,-0.2195,-0.2234,-0.2264,-0.2296,-0.2319,-0.2338,-0.2346,-0.2357,-0.2355,-0.2355,-0.2353,-0.2341,-0.2328,-0.2342,-0.2291,-0.2289,-0.2212,-0.221,-0.2054,-0.1998,-0.2284,-0.2284,-0.2283,0,-0.2055,-0.2085,-0.212,-0.2176,-0.219,-0.2215,-0.226,-0.2293,-0.2332,-0.2348,-0.2364,-0.2369,-0.2377,-0.2366,-0.2349,-0.2357,-0.2329,-0.2314,-0.2312,-0.2224,-0.2207,-0.2024,-0.1983,-0.228,-0.228,-0.2281,-0.2281,0,-0.2008,-0.207,-0.2094,-0.2115,-0.2184,-0.2202,-0.2237,-0.2285,-0.231,-0.2349,-0.2363,-0.2376,-0.2377,-0.2358,-0.2332,-0.234,-0.2298,-0.2305,-0.2205,-0.2199,-0.2048,-0.2028,-0.2277,-0.2277,-0.2277,-0.2277,-0.2277,0,-0.1986,-0.2003,-0.2073,-0.2085,-0.2112,-0.2172,-0.22,-0.2241,-0.2291,-0.231,-0.2356,-0.2362,-0.2374,-0.2356,-0.233,-0.2254,-0.2294,-0.2197,-0.218,-0.2054,-0.2036,-0.2268,-0.2268,-0.2275,-0.2276,-0.2276,-0.2276,0,-0.192,-0.1971,-0.2,-0.2069,-0.2088,-0.2104,-0.2173,-0.2191,-0.2255,-0.2281,-0.2292,-0.2345,-0.2323,-0.2316,-0.228,-0.2238,-0.2184,-0.2143,-0.1989,-0.1954,-0.2092,-0.2094,-0.2032,-0.2028,-0.2026,-0.2023,-0.2022,0,-0.1888,-0.1897,-0.1966,-0.1976,-0.2003,-0.2042,-0.2063,-0.215,-0.2174,-0.2257,-0.2256,-0.227,-0.2239,-0.217,-0.2098,-0.2018,-0.2098,-0.1837,-0.1822,-0.2076,-0.2066,-0.2072,-0.2078,-0.1636,-0.1631,-0.1627,-0.1624,0,-0.1814,-0.184,-0.1862,-0.1888,-0.1911,-0.1943,-0.1986,-0.2003,-0.2098,-0.2123,-0.2138,-0.2124,-0.2074,-0.1923,-0.1839,-0.1778,-0.1841,-0.1752,-0.2044,-0.1726,-0.17,-0.1692,-0.171,-0.1588,-0.1592,-0.1594,-0.1596,-0.1598,-0.1742,-0.174,-0.1767,-0.1777,-0.1805,-0.1814,-0.1793,-0.185,-0.1866,-0.187,-0.195,-0.1874,-0.1858,-0.1639,-0.1542,-0.1469,-0.16,-0.1533,-0.1547,-0.1565,-0.153,-0.1501,-0.1344,-0.1346,-0.1348,-0.135,-0.1351,0,-0.1641,-0.1646,-0.1652,-0.1661,-0.1636,-0.1692,-0.1709,-0.1663,-0.1625,-0.166,-0.1639,-0.1471,-0.1364,-0.1352,-0.1178,-0.1139,-0.1138,-0.1096,-0.1102,-0.1137,-0.1169,-0.1116,-0.082,-0.0818,-0.0816,-0.0815,0,0,-0.1587,-0.1551,-0.1554,-0.1477,-0.1476,-0.1396,-0.137,-0.133,-0.1316,-0.1248,-0.121,-0.1293,-0.1314,-0.1075,-0.1012,-0.0887,-0.1003,-0.0838,-0.1265,-0.1307,-0.1337,-0.1419,-0.1377,0,0,0,0,0]},{"header":{"parameterUnit":"m.s-1","parameterCategory":2,"la1":30.2991,"la2":30.254,"lo1":-89.0895,"lo2":-89.0444,"dy":0.0017,"dx":0.0017,"nx":28,"ny":28,"refTime":"2025-01-27T09:00:00:Z","depth":"2","parameterNumber":3,"parameterNumberName":"V-component_of_CURRENTS"},"data":[0,0,0,0,0,0,0,0,0,0,0,0,0,0,0,0,0,0,0,0,0,0,0,0,0,0,0,0,0,0,0,0,0,0,0,0,0,0,0,0,0,0,0,0,0,0,0,0,0,0,0,0,0,0,0,0,0,0,-0.0255,-0.0255,0,-0.0195,-0.0194,-0.0193,-0.0148,-0.0147,-0.0147,-0.0147,-0.0042,-0.0039,-0.0037,0,0,0,0,0,0,0,0,0,0,0,0,0,-0.0282,-0.0282,-0.0255,-0.0255,-0.0254,-0.0195,-0.0194,-0.0193,-0.0148,-0.0147,-0.0147,-0.0147,-0.0042,-0.0039,-0.0036,0,0,0,0,0,0,0,0,0,0,0,0,0,-0.025,-0.0282,-0.0255,-0.0225,-0.0222,-0.0195,-0.0194,-0.0193,-0.0148,-0.0147,-0.0147,-0.0146,-0.0043,-0.004,-0.0036,-0.0022,0,0,-0.0024,-0.0023,0,0,0,0,0,0,0,0,-0.0252,-0.0249,-0.023,-0.0227,-0.0223,-0.0179,-0.0165,-0.0134,-0.0148,-0.0175,-0.0147,-0.0146,-0.0085,-0.0077,-0.0066,-0.0017,-0.0013,-0.0024,-0.0022,-0.002,-0.0019,0,0,0,0,0,0,0,-0.0254,-0.0251,-0.023,-0.0229,-0.0225,-0.0198,-0.0193,-0.0159,-0.0131,-0.0172,-0.0169,-0.0164,-0.0082,-0.007,-0.0063,-0.0011,-0.0024,-0.0021,-0.0019,-0.0017,0.0069,0.0069,0,0,0,0,0,0,-0.0267,-0.0253,-0.0232,-0.0228,-0.0238,-0.0198,-0.0193,-0.0193,-0.0132,-0.0123,-0.0165,-0.0163,-0.0077,-0.0068,-0.0059,-0.0036,-0.002,-0.0017,-0.0015,0.0069,0.0069,0.0069,0,0,0,0,0,0,-0.0268,-0.0266,-0.0234,-0.024,-0.0234,-0.0198,-0.0199,-0.0192,-0.0179,-0.0128,-0.0117,-0.0159,-0.0076,-0.0065,-0.003,-0.0032,-0.0015,-0.0012,0.0069,0.0069,0.0069,0.0008,0,0,0,0,0,0,-0.0269,-0.0267,-0.0272,-0.0241,-0.0234,-0.0225,-0.0199,-0.0191,-0.0178,-0.0174,-0.0119,-0.0109,-0.0075,-0.0036,-0.0027,-0.0026,-0.0009,0.0069,0.0069,0.0069,0.001,0.0006,0.0002,0,0,0,0,0,-0.027,-0.0282,-0.0273,-0.027,-0.0243,-0.0226,-0.022,-0.0191,-0.0178,-0.0177,-0.0138,-0.0111,-0.0029,-0.0033,-0.0022,-0.0021,0.0069,0.0069,0.0069,0.0012,0.0007,0.0002,0,0,0,0,0,0,-0.0296,-0.0278,-0.0267,-0.0272,-0.0253,-0.0218,-0.0215,-0.0196,-0.0165,-0.0161,-0.0111,-0.0098,-0.0069,-0.0036,-0.0042,0.0005,0.0025,0.0027,-0.0023,-0.0027,-0.0031,-0.0043,-0.0006,0,0,0,0,0,-0.0305,-0.0309,-0.0284,-0.0288,-0.0282,-0.0249,-0.0239,-0.0221,-0.019,-0.0176,-0.0138,-0.0096,-0.006,-0.0038,-0.0003,0.0023,0.0061,0.0032,0.0028,0.0025,0.0023,0.0075,0.0075,0.0069,0.0069,0.0069,0,0,-0.0315,-0.0307,-0.0308,-0.0294,-0.0276,-0.0274,-0.0242,-0.0232,-0.0225,-0.0169,-0.0148,-0.011,-0.0057,-0.003,-0.0013,-0.0001,0.0047,0.0025,0.0021,0.0022,0.0075,0.0076,0.0076,0.0069,0.0069,0.0069,0,0,-0.0342,-0.0331,-0.0344,-0.0334,-0.0316,-0.0294,-0.0295,-0.0263,-0.0244,-0.0221,-0.0179,-0.0142,-0.009,-0.005,-0.0024,-0.0026,0.0022,-0.0016,-0.004,0.001,0.001,0.0012,0.006,0.0066,-0.0014,-0.0015,-0.0015,0,-0.0355,-0.0368,-0.0344,-0.0354,-0.035,-0.0308,-0.0319,-0.0294,-0.0254,-0.0238,-0.0223,-0.0141,-0.0098,-0.0055,-0.0057,-0.0034,-0.0,-0.003,0.0004,0.0006,0.0008,0.0057,0.0065,-0.0018,-0.0017,-0.0017,-0.0017,0,-0.0391,-0.04,-0.0407,-0.0406,-0.0397,-0.0399,-0.0366,-0.0348,-0.032,-0.0289,-0.0245,-0.0185,-0.0135,-0.0116,-0.0086,-0.0049,-0.0029,-0.0011,0.0012,0.0005,0.0058,0.0066,-0.0022,-0.0021,-0.002,-0.0019,0,0,-0.0424,-0.0432,-0.0435,-0.0446,-0.0426,-0.0424,-0.041,-0.0384,-0.0371,-0.0323,-0.0299,-0.0234,-0.0196,-0.0164,-0.0117,-0.0072,-0.0026,-0.0041,-0.0037,-0.0,0.0083,0.0107,0.012,-0.0005,-0.0004,-0.0003,0.0113,0,-0.0459,-0.0498,-0.0485,-0.051,-0.0526,-0.0486,-0.0478,-0.0446,-0.0404,-0.0368,-0.0296,-0.0255,-0.0215,-0.019,-0.014,-0.0055,-0.0006,-0.0059,0.009,0.0095,0.0111,0.013,0.0106,0.0208,0.0122,0.0123,0.0124,0,-0.0499,-0.0521,-0.056,-0.0568,-0.057,-0.0573,-0.0549,-0.0534,-0.0468,-0.0435,-0.0376,-0.0315,-0.0238,-0.0206,-0.0063,-0.0101,-0.0016,0.0051,0.0057,0.0107,0.0135,0.0203,0.0228,0.0139,0.0138,0.0137,0.0136,0,-0.0545,-0.0571,-0.0605,-0.061,-0.0611,-0.0613,-0.0604,-0.0556,-0.0543,-0.0472,-0.0449,-0.0349,-0.0292,-0.0182,-0.0042,-0.0051,0.0117,0.0127,0.0231,0.0234,0.0259,0.0261,0.023,0.023,0.0229,0.0229,0.0229,0,-0.0591,-0.0617,-0.0631,-0.0652,-0.0686,-0.0663,-0.0674,-0.0646,-0.0601,-0.0583,-0.0488,-0.0442,-0.0283,-0.0167,-0.0048,0.0121,0.0119,0.0234,0.0269,0.0237,0.0236,0.021,0.0206,0.0233,0.0232,0.0232,0.0231,0,-0.0636,-0.0644,-0.0688,-0.0705,-0.0711,-0.0735,-0.0735,-0.0736,-0.0685,-0.0655,-0.0635,-0.0501,-0.0343,-0.0179,0.0018,0.0119,0.0273,0.0334,0.0285,0.0311,0.0358,0.0349,0.0462,0.0464,0.0465,0.0467,0.0468,0,-0.0662,-0.0691,-0.0737,-0.0768,-0.0778,-0.0805,-0.082,-0.0786,-0.078,-0.0687,-0.0674,-0.0515,-0.0389,-0.0094,0.0112,0.0334,0.0331,0.0437,0.0418,0.0361,0.0383,0.0372,0.0362,0.043,0.0431,0.0432,0.0432,0,-0.0711,-0.0727,-0.0764,-0.0834,-0.0866,-0.0899,-0.0912,-0.0921,-0.0865,-0.0813,-0.0709,-0.0598,-0.0309,-0.0061,0.0222,0.0345,0.0396,0.0456,0.0427,0.0366,0.0339,0.0357,0.0347,0.0437,0.0437,0.0436,0.0436,0.0436,-0.0741,-0.0783,-0.0834,-0.0895,-0.0939,-0.0978,-0.0998,-0.0982,-0.0955,-0.0854,-0.0742,-0.0547,-0.0311,0.0097,0.0297,0.048,0.0474,0.0521,0.0516,0.0511,0.0478,0.0454,0.0569,0.0569,0.0569,0.0569,0.0569,0,-0.0775,-0.0824,-0.0891,-0.0961,-0.1016,-0.1021,-0.1045,-0.1034,-0.0989,-0.0854,-0.0718,-0.0441,-0.0154,0.0089,0.0385,0.0559,0.0541,0.0584,0.0525,0.0519,0.0514,0.0478,0.0571,0.0571,0.0572,0.0572,0,0,-0.0795,-0.0865,-0.0903,-0.1003,-0.1052,-0.1096,-0.1105,-0.1059,-0.0968,-0.0821,-0.066,-0.0446,-0.015,0.006,0.028,0.0435,0.043,0.0449,0.043,0.0328,0.0321,0.0462,0.0399,0,0,0,0,0]}],[{"header":{"parameterUnit":"m.s-1","parameterCategory":2,"la1":30.2991,"la2":30.254,"lo1":-89.0895,"lo2":-89.0444,"dy":0.0017,"dx":0.0017,"nx":28,"ny":28,"refTime":"2025-01-27T09:00:00:Z","depth":"4","parameterNumber":2,"parameterNumberName":"U-component_of_CURRENTS"},"data":[0,0,0,0,0,0,0,0,0,0,0,0,0,0,0,0,0,0,0,0,0,0,0,0,0,0,0,0,0,0,0,0,0,0,0,0,0,0,0,0,0,0,0,0,0,0,0,0,0,0,0,0,0,0,0,0,0,0,-0.1519,-0.152,0,-0.1582,-0.1583,-0.1583,-0.1616,-0.1616,-0.1616,-0.1616,-0.1678,-0.1679,-0.1681,0,0,0,0,0,0,0,0,0,0,0,0,0,-0.1436,-0.1438,-0.1519,-0.152,-0.1521,-0.1582,-0.1583,-0.1583,-0.1616,-0.1616,-0.1616,-0.1616,-0.1678,-0.1679,-0.1681,0,0,0,0,0,0,0,0,0,0,0,0,0,-0.1482,-0.1438,-0.1519,-0.1545,-0.1548,-0.1582,-0.1583,-0.1584,-0.1616,-0.1616,-0.1616,-0.1616,-0.1677,-0.1679,-0.1681,-0.169,0,0,-0.1688,-0.1689,0,0,0,0,0,0,0,0,-0.1479,-0.1485,-0.1541,-0.1544,-0.1547,-0.1592,-0.1576,-0.162,-0.1616,-0.1589,-0.1616,-0.1617,-0.165,-0.1654,-0.1664,-0.1693,-0.1696,-0.1688,-0.169,-0.1691,-0.1691,0,0,0,0,0,0,0,-0.1476,-0.1482,-0.1543,-0.1541,-0.1546,-0.1557,-0.1564,-0.1585,-0.1616,-0.1591,-0.1594,-0.1603,-0.1652,-0.1662,-0.1666,-0.1697,-0.1688,-0.169,-0.1692,-0.1693,-0.1796,-0.1797,0,0,0,0,0,0,-0.147,-0.1479,-0.1541,-0.1545,-0.1514,-0.1559,-0.1566,-0.1577,-0.1616,-0.1623,-0.1603,-0.1604,-0.1658,-0.1663,-0.1668,-0.1737,-0.1691,-0.1693,-0.1694,-0.1795,-0.1796,-0.1798,0,0,0,0,0,0,-0.1468,-0.1475,-0.1538,-0.1514,-0.1523,-0.156,-0.1572,-0.1578,-0.1613,-0.1625,-0.1632,-0.1634,-0.1658,-0.1665,-0.171,-0.1738,-0.1694,-0.1696,-0.1793,-0.1795,-0.1797,-0.184,0,0,0,0,0,0,-0.1466,-0.1474,-0.1492,-0.1514,-0.1524,-0.1574,-0.1572,-0.1579,-0.1617,-0.162,-0.1654,-0.1659,-0.1659,-0.1707,-0.1712,-0.174,-0.1698,-0.1791,-0.1794,-0.1796,-0.1837,-0.1843,-0.1849,0,0,0,0,0,-0.1462,-0.1482,-0.1493,-0.1501,-0.1544,-0.1575,-0.1582,-0.1607,-0.1618,-0.1639,-0.1664,-0.1659,-0.1727,-0.171,-0.1716,-0.1745,-0.179,-0.1793,-0.1796,-0.1834,-0.1842,-0.1849,0,0,0,0,0,0,-0.1456,-0.1488,-0.15,-0.1529,-0.1558,-0.1582,-0.1607,-0.1624,-0.166,-0.1671,-0.1679,-0.1686,-0.1734,-0.1736,-0.1717,-0.1783,-0.1757,-0.1761,-0.1784,-0.1791,-0.1797,-0.1789,-0.17,0,0,0,0,0,-0.1463,-0.1487,-0.1516,-0.1542,-0.1559,-0.1589,-0.161,-0.1629,-0.1657,-0.1675,-0.1699,-0.1725,-0.1748,-0.1768,-0.1788,-0.1827,-0.181,-0.185,-0.1856,-0.1861,-0.1859,-0.1859,-0.1864,-0.1808,-0.1808,-0.1808,0,0,-0.1469,-0.1489,-0.1505,-0.1544,-0.1569,-0.16,-0.1603,-0.1643,-0.1675,-0.1676,-0.1734,-0.175,-0.1764,-0.1806,-0.1828,-0.1814,-0.1869,-0.1865,-0.1869,-0.1864,-0.1863,-0.1868,-0.1873,-0.181,-0.181,-0.181,0,0,-0.1483,-0.1512,-0.1534,-0.1563,-0.1606,-0.1625,-0.1643,-0.1685,-0.1712,-0.1764,-0.177,-0.1804,-0.1849,-0.186,-0.187,-0.1923,-0.19,-0.1936,-0.1961,-0.1962,-0.1966,-0.197,-0.1952,-0.1954,-0.1939,-0.1939,-0.1939,0,-0.1491,-0.1521,-0.1547,-0.1576,-0.1604,-0.164,-0.1672,-0.1705,-0.1758,-0.1781,-0.179,-0.1855,-0.1871,-0.1908,-0.1928,-0.1936,-0.1926,-0.1931,-0.1968,-0.1971,-0.1974,-0.1956,-0.1957,-0.1941,-0.1941,-0.1941,-0.1941,0,-0.1511,-0.1549,-0.1567,-0.1614,-0.1648,-0.1685,-0.1729,-0.1772,-0.181,-0.1836,-0.1894,-0.1916,-0.1948,-0.1964,-0.1964,-0.1998,-0.198,-0.1974,-0.1945,-0.1982,-0.1961,-0.1961,-0.1945,-0.1944,-0.1943,-0.1943,0,0,-0.149,-0.1567,-0.1575,-0.1607,-0.1673,-0.17,-0.1761,-0.1814,-0.1851,-0.1905,-0.1944,-0.1993,-0.2003,-0.2014,-0.2022,-0.2028,-0.2041,-0.2014,-0.2013,-0.1989,-0.2031,-0.1893,-0.1879,-0.2042,-0.2043,-0.2043,-0.2007,0,-0.15,-0.1556,-0.1595,-0.1657,-0.169,-0.1746,-0.1795,-0.1851,-0.1898,-0.1946,-0.1976,-0.2017,-0.2022,-0.2041,-0.2051,-0.2047,-0.2045,-0.2051,-0.2006,-0.2005,-0.187,-0.1876,-0.2045,-0.2007,-0.2007,-0.2007,-0.2007,0,-0.1497,-0.1539,-0.1599,-0.1679,-0.1699,-0.1745,-0.1825,-0.1874,-0.1943,-0.1979,-0.2022,-0.2044,-0.2076,-0.2068,-0.2074,-0.2079,-0.2059,-0.2047,-0.2045,-0.1898,-0.1866,-0.1964,-0.2007,-0.2007,-0.2007,-0.2007,-0.2007,0,-0.145,-0.1537,-0.1587,-0.1616,-0.1711,-0.1754,-0.1808,-0.1885,-0.1925,-0.1998,-0.2026,-0.2067,-0.2088,-0.2082,-0.2066,-0.2076,-0.2049,-0.2056,-0.1907,-0.1898,-0.2015,-0.2012,-0.2043,-0.2043,-0.2043,-0.2043,-0.2044,0,-0.1426,-0.1469,-0.1575,-0.1601,-0.1662,-0.1738,-0.1802,-0.1861,-0.1935,-0.1965,-0.2037,-0.2048,-0.2093,-0.2085,-0.2067,-0.1974,-0.2047,-0.19,-0.1875,-0.2034,-0.2034,-0.2015,-0.2012,-0.2042,-0.2042,-0.2043,-0.2043,0,-0.1359,-0.1433,-0.1494,-0.1605,-0.1641,-0.1685,-0.1791,-0.1824,-0.1912,-0.1951,-0.1973,-0.2039,-0.2023,-0.2035,-0.2016,-0.1952,-0.1893,-0.184,-0.1995,-0.1982,-0.1743,-0.1744,-0.1672,-0.1667,-0.1662,-0.1659,-0.1656,0,-0.1325,-0.1353,-0.1478,-0.1512,-0.1566,-0.1644,-0.1686,-0.1795,-0.1823,-0.192,-0.1914,-0.1945,-0.1966,-0.182,-0.1858,-0.1791,-0.1771,-0.1728,-0.1747,-0.172,-0.1704,-0.1711,-0.1718,-0.1648,-0.1647,-0.1646,-0.1645,0,-0.1254,-0.1314,-0.1363,-0.1433,-0.1491,-0.1545,-0.1615,-0.1622,-0.1728,-0.1828,-0.1793,-0.1771,-0.1745,-0.1719,-0.167,-0.1631,-0.1753,-0.1682,-0.1691,-0.1709,-0.1691,-0.1681,-0.1692,-0.1629,-0.1632,-0.1633,-0.1634,0,-0.1198,-0.1215,-0.1285,-0.133,-0.1398,-0.1411,-0.1471,-0.1491,-0.1532,-0.1641,-0.1622,-0.1656,-0.172,-0.1633,-0.1593,-0.1536,-0.152,-0.1472,-0.1492,-0.151,-0.1473,-0.1427,-0.125,0,0,0,0,0,-0.1133,-0.1135,-0.117,-0.1213,-0.1272,-0.1306,-0.1399,-0.146,-0.1565,-0.1492,-0.1551,-0.1516,-0.146,-0.1483,-0.1388,-0.1523,-0.1529,-0.1407,-0.1486,-0.1543,-0.1561,-0.1532,0,0,0,0,0,0,-0.1088,-0.112,-0.1129,-0.1095,-0.1095,-0.1144,-0.1194,-0.1273,-0.1243,-0.1354,-0.1327,-0.1411,-0.1377,-0.1476,-0.1349,-0.1354,-0.137,-0.1438,-0.1434,-0.1533,-0.1549,-0.1564,-0.154,0,0,0,0,0]},{"header":{"parameterUnit":"m.s-1","parameterCategory":2,"la1":30.2991,"la2":30.254,"lo1":-89.0895,"lo2":-89.0444,"dy":0.0017,"dx":0.0017,"nx":28,"ny":28,"refTime":"2025-01-27T09:00:00:Z","depth":"4","parameterNumber":3,"parameterNumberName":"V-component_of_CURRENTS"},"data":[0,0,0,0,0,0,0,0,0,0,0,0,0,0,0,0,0,0,0,0,0,0,0,0,0,0,0,0,0,0,0,0,0,0,0,0,0,0,0,0,0,0,0,0,0,0,0,0,0,0,0,0,0,0,0,0,0,0,-0.0213,-0.0213,0,-0.0176,-0.0176,-0.0175,-0.0147,-0.0147,-0.0147,-0.0147,-0.0066,-0.0064,-0.0062,0,0,0,0,0,0,0,0,0,0,0,0,0,-0.0221,-0.0221,-0.0213,-0.0213,-0.0213,-0.0176,-0.0176,-0.0175,-0.0147,-0.0147,-0.0147,-0.0147,-0.0067,-0.0065,-0.0062,0,0,0,0,0,0,0,0,0,0,0,0,0,-0.0203,-0.0221,-0.0213,-0.0195,-0.0193,-0.0177,-0.0176,-0.0175,-0.0147,-0.0147,-0.0147,-0.0147,-0.0068,-0.0065,-0.0062,-0.0048,0,0,-0.0053,-0.0051,0,0,0,0,0,0,0,0,-0.0204,-0.0203,-0.0198,-0.0196,-0.0194,-0.0167,-0.0149,-0.0131,-0.0147,-0.0164,-0.0147,-0.0147,-0.0097,-0.0092,-0.0084,-0.0044,-0.0041,-0.0052,-0.0051,-0.0049,-0.0048,0,0,0,0,0,0,0,-0.0205,-0.0204,-0.0198,-0.0198,-0.0196,-0.0176,-0.0173,-0.0145,-0.013,-0.0162,-0.016,-0.0158,-0.0095,-0.0087,-0.0082,-0.0039,-0.0052,-0.005,-0.0048,-0.0047,0.0026,0.0026,0,0,0,0,0,0,-0.0215,-0.0205,-0.0199,-0.0197,-0.02,-0.0176,-0.0173,-0.0175,-0.0131,-0.0125,-0.0158,-0.0157,-0.0092,-0.0085,-0.0079,-0.006,-0.0049,-0.0046,-0.0045,0.0026,0.0026,0.0026,0,0,0,0,0,0,-0.0215,-0.0215,-0.02,-0.0201,-0.0198,-0.0176,-0.0179,-0.0175,-0.0168,-0.0129,-0.0122,-0.0157,-0.0092,-0.0083,-0.0057,-0.0057,-0.0045,-0.0042,0.0026,0.0026,0.0026,-0.0022,0,0,0,0,0,0,-0.0215,-0.0215,-0.0221,-0.0202,-0.0198,-0.0196,-0.0179,-0.0174,-0.0168,-0.0165,-0.0125,-0.0118,-0.0091,-0.0061,-0.0054,-0.0052,-0.004,0.0025,0.0026,0.0026,-0.0021,-0.0024,-0.0026,0,0,0,0,0,-0.0216,-0.0227,-0.0222,-0.0221,-0.0207,-0.0196,-0.0193,-0.0176,-0.0168,-0.0168,-0.014,-0.0119,-0.0054,-0.0059,-0.005,-0.0048,0.0025,0.0026,0.0026,-0.002,-0.0023,-0.0026,0,0,0,0,0,0,-0.0233,-0.0225,-0.0219,-0.0227,-0.0215,-0.0192,-0.0193,-0.018,-0.0159,-0.0156,-0.0118,-0.0108,-0.0086,-0.0059,-0.0066,-0.0025,-0.001,-0.0008,-0.0048,-0.0051,-0.0054,-0.0064,-0.0038,0,0,0,0,0,-0.024,-0.0247,-0.0232,-0.0239,-0.0235,-0.0215,-0.0209,-0.0198,-0.0176,-0.0167,-0.0139,-0.0106,-0.0077,-0.0059,-0.0032,-0.001,0.0022,-0.0001,-0.0004,-0.0006,-0.0008,0.0041,0.0042,0.0027,0.0027,0.0027,0,0,-0.0249,-0.0245,-0.0249,-0.0243,-0.0233,-0.0233,-0.0211,-0.0206,-0.0203,-0.0161,-0.0147,-0.0117,-0.0074,-0.0051,-0.0038,-0.0029,0.0014,-0.0006,-0.0009,-0.0009,0.0041,0.0042,0.0044,0.0027,0.0027,0.0027,0,0,-0.0269,-0.0266,-0.0278,-0.0273,-0.0264,-0.0249,-0.0251,-0.0231,-0.0219,-0.0202,-0.017,-0.0139,-0.0099,-0.0066,-0.0044,-0.0043,-0.0004,-0.0035,-0.0054,-0.0007,-0.0005,-0.0003,0.0034,0.004,-0.0033,-0.0034,-0.0034,0,-0.028,-0.0293,-0.0279,-0.0288,-0.0288,-0.026,-0.027,-0.0253,-0.0226,-0.0214,-0.0205,-0.0138,-0.0104,-0.0066,-0.0067,-0.0049,-0.002,-0.0047,-0.0011,-0.0008,-0.0006,0.0033,0.004,-0.0036,-0.0036,-0.0035,-0.0035,0,-0.0307,-0.0318,-0.0324,-0.0327,-0.0324,-0.0328,-0.0306,-0.0295,-0.0277,-0.0254,-0.0218,-0.017,-0.0129,-0.0113,-0.0091,-0.0055,-0.0041,-0.0024,-0.0006,-0.0007,0.0034,0.0042,-0.0039,-0.0038,-0.0038,-0.0037,0,0,-0.033,-0.0342,-0.0346,-0.0357,-0.0347,-0.0348,-0.0339,-0.0321,-0.0313,-0.0277,-0.0258,-0.0204,-0.0175,-0.0147,-0.0109,-0.0069,-0.0027,-0.0045,-0.0041,-0.0013,0.007,0.0051,0.0058,-0.0006,-0.0005,-0.0004,0.0089,0,-0.0356,-0.0388,-0.0382,-0.0406,-0.042,-0.0395,-0.0391,-0.0369,-0.034,-0.0313,-0.0252,-0.0221,-0.0187,-0.0169,-0.0123,-0.0052,-0.0008,-0.0055,0.0072,0.0076,0.0055,0.0066,-0.0,0.0095,0.0097,0.0098,0.0099,0,-0.0383,-0.0403,-0.0438,-0.0451,-0.0454,-0.0462,-0.045,-0.0441,-0.0391,-0.0367,-0.0317,-0.0269,-0.0202,-0.0177,-0.0051,-0.0084,-0.0014,0.0043,0.0048,0.0053,0.0072,0.01,0.0114,0.0113,0.0112,0.0111,0.011,0,-0.0412,-0.0439,-0.0471,-0.0477,-0.0486,-0.0494,-0.0493,-0.046,-0.0453,-0.0399,-0.0383,-0.0295,-0.0251,-0.0152,-0.0038,-0.0042,0.0098,0.0113,0.0166,0.0166,0.0175,0.0173,0.0204,0.0203,0.0203,0.0203,0.0203,0,-0.044,-0.0466,-0.0492,-0.051,-0.0546,-0.0534,-0.0553,-0.0534,-0.0504,-0.0494,-0.0416,-0.0381,-0.0243,-0.0147,-0.0044,0.0081,0.01,0.0165,0.019,0.0152,0.0146,0.0181,0.0177,0.0206,0.0206,0.0205,0.0204,0,-0.0464,-0.0481,-0.0523,-0.0551,-0.0564,-0.059,-0.0607,-0.0613,-0.0578,-0.056,-0.0545,-0.0438,-0.031,-0.0173,-0.0004,0.0068,0.0192,0.0234,0.0177,0.0198,0.0232,0.0224,0.0304,0.0304,0.0305,0.0305,0.0305,0,-0.0478,-0.0504,-0.0562,-0.0596,-0.0614,-0.065,-0.0672,-0.0655,-0.0653,-0.0591,-0.0579,-0.046,-0.0375,-0.0145,-0.0007,0.0189,0.0214,0.0271,0.0256,0.0226,0.0243,0.0236,0.0228,0.0305,0.0305,0.0305,0.0305,0,-0.0503,-0.0529,-0.0565,-0.0641,-0.0683,-0.0722,-0.0746,-0.0749,-0.0715,-0.0689,-0.059,-0.0465,-0.0322,-0.0145,0.0004,0.0143,0.0228,0.0273,0.0274,0.026,0.0228,0.0243,0.0236,0.0306,0.0305,0.0305,0.0305,0,-0.052,-0.0557,-0.0613,-0.0673,-0.0734,-0.0773,-0.0782,-0.0762,-0.0748,-0.0667,-0.0635,-0.047,-0.0369,-0.0167,-0.003,0.0101,0.0135,0.0169,0.0176,0.0177,0.0106,0.0044,0.0089,0,0,0,0,0,-0.0532,-0.0576,-0.064,-0.0707,-0.0769,-0.0798,-0.082,-0.0815,-0.0782,-0.0715,-0.0669,-0.0528,-0.0308,-0.0208,-0.0077,-0.0042,0.0141,0.0112,0.0179,0.0308,0.0308,0.0243,0,0,0,0,0,0,-0.0543,-0.0606,-0.064,-0.072,-0.0768,-0.0826,-0.084,-0.0818,-0.0766,-0.0713,-0.0589,-0.0512,-0.0293,-0.038,-0.0078,-0.0039,0.0017,0.0222,0.0224,0.0308,0.0308,0.0308,0.0241,0,0,0,0,0]}]]